AT160 Weather Reports


time (UTC)temp
C
wind
direction
speed
KPH
gust
KPH
rain 1hr
cm
rain 24hr
cm
rain mn
cm
humidity
%
barometer
mb
20260507171924 18 20 0.0 0.0 0.00 0.00 0.00 86 1015.2
20260507171416 18 20 0.0 0.0 0.00 0.00 0.00 86 1015.2
20260507170402 19 20 0.0 0.0 0.00 0.00 0.00 85 1015.1
20260507165845 19 20 0.0 0.0 0.00 0.00 0.00 85 1015.3
20260507165348 19 20 0.0 0.0 0.00 0.00 0.00 84 1015.3
20260507164834 19 20 0.0 3.2 0.00 0.00 0.00 84 1015.3
20260507164306 19 20 0.0 3.2 0.00 0.00 0.00 83 1015.1
20260507164256 19 20 0.0 0.0 0.00 0.00 0.00 82 1015.1
20260507163248 19 20 0.0 3.2 0.00 0.00 0.00 81 1015.1
20260507162739 19 20 0.0 4.8 0.00 0.00 0.00 81 1015.4
20260507162233 19 20 0.0 4.8 0.00 0.00 0.00 81 1015.4
20260507162016 19 291 0.0 0.0 0.00 0.00 0.00 81 1015.6
20260507161752 19 311 0.0 0.0 0.00 0.00 0.00 81 1015.4
20260507160723 19 291 0.0 1.6 0.00 0.00 0.00 81 1015.6
20260507160203 19 291 0.0 1.6 0.00 0.00 0.00 81 1015.6
20260507155624 20 0 0.0 0.0 0.00 0.00 0.00 81 1015.5
20260507155100 20 0 0.0 0.0 0.00 0.00 0.00 81 1015.5
20260507154547 20 0 0.0 0.0 0.00 0.00 0.00 80 1015.5
20260507154035 20 0 0.0 3.2 0.00 0.00 0.00 80 1015.9
20260507153527 20 0 1.6 4.8 0.00 0.00 0.00 80 1015.9
20260507153001 20 359 0.0 4.8 0.00 0.00 0.00 80 1015.9
20260507152505 20 328 0.0 3.2 0.00 0.00 0.00 79 1015.9
20260507151953 20 296 0.0 3.2 0.00 0.00 0.00 78 1015.9
20260507151449 20 296 0.0 3.2 0.00 0.00 0.00 78 1015.9
20260507150938 20 48 0.0 0.0 0.00 0.00 0.00 77 1016.0
20260507150442 20 41 0.0 0.0 0.00 0.00 0.00 77 1016.0
20260507145933 20 48 0.0 0.0 0.00 0.00 0.00 76 1016.0
20260507145430 20 51 0.0 0.0 0.00 0.00 0.00 77 1016.1
20260507145117 20 44 0.0 1.6 0.00 0.00 0.00 76 1016.1
20260507144931 20 23 0.0 0.0 0.00 0.00 0.00 76 1016.1
20260507143936 20 58 0.0 4.8 0.00 0.00 0.00 76 1016.0
20260507143433 20 55 0.0 4.8 0.00 0.00 0.00 76 1016.0
20260507142935 20 72 0.0 1.6 0.00 0.00 0.00 76 1016.0
20260507142433 20 69 0.0 1.6 0.00 0.00 0.00 76 1016.1
20260507141922 20 71 0.0 0.0 0.00 0.00 0.00 76 1016.1
20260507141421 20 34 0.0 0.0 0.00 0.00 0.00 75 1016.1
20260507140920 20 34 0.0 3.2 0.00 0.00 0.00 75 1016.0
20260507140425 20 34 0.0 3.2 0.00 0.00 0.00 74 1016.0
20260507135922 20 37 0.0 3.2 0.00 0.00 0.00 74 1016.0
20260507135418 20 37 0.0 1.6 0.00 0.00 0.00 74 1016.0
20260507134914 20 37 0.0 8.0 0.00 0.00 0.00 74 1016.0
20260507134417 20 35 1.6 8.0 0.00 0.00 0.00 73 1016.0
20260507133857 20 35 0.0 4.8 0.00 0.00 0.00 74 1016.0
20260507133350 20 64 1.6 4.8 0.00 0.00 0.00 74 1016.0
20260507132958 20 34 1.6 4.8 0.00 0.00 0.00 74 1016.0
20260507132831 20 30 3.2 8.0 0.00 0.00 0.00 73 1016.0
20260507132316 20 47 1.6 8.0 0.00 0.00 0.00 73 1016.0
20260507131311 19 38 0.0 8.0 0.00 0.00 0.00 74 1016.0
20260507130813 19 40 0.0 8.0 0.00 0.00 0.00 74 1016.0
20260507130311 20 40 0.0 4.8 0.00 0.00 0.00 74 1016.0
20260507125810 20 11 0.0 1.6 0.00 0.00 0.00 75 1016.5
20260507125309 19 11 0.0 1.6 0.00 0.00 0.00 75 1016.5
20260507124755 19 11 0.0 4.8 0.00 0.00 0.00 75 1016.5
20260507124619 19 11 1.6 8.0 0.00 0.00 0.00 75 1016.7
20260507123738 19 0 1.6 8.0 0.00 0.00 0.00 76 1016.7
20260507123231 18 347 1.6 8.0 0.00 0.00 0.00 76 1016.7
20260507122853 18 312 3.2 9.7 0.00 0.00 0.00 75 1016.2
20260507122716 18 329 1.6 8.0 0.00 0.00 0.00 76 1016.2
20260507121704 18 346 4.8 9.7 0.00 0.00 0.00 76 1016.2
20260507121204 18 359 4.8 11.3 0.00 0.00 0.00 76 1016.8
20260507120655 18 25 3.2 11.3 0.00 0.00 0.00 75 1016.8
20260507120155 18 25 3.2 9.7 0.00 0.00 0.00 76 1016.8
20260507115656 18 0 3.2 11.3 0.00 0.00 0.00 77 1017.4
20260507115149 18 304 3.2 11.3 0.00 0.00 0.00 77 1017.4
20260507114822 18 17 4.8 11.3 0.00 0.00 0.00 80 1017.4
20260507114647 18 311 3.2 11.3 0.00 0.00 0.00 80 1017.4
20260507113653 18 6 4.8 11.3 0.00 0.00 0.00 81 1017.4
20260507113146 18 357 3.2 11.3 0.00 0.00 0.00 82 1017.4
20260507112643 18 350 1.6 11.3 0.00 0.00 0.00 84 1017.3
20260507112149 18 337 1.6 8.0 0.00 0.00 0.00 83 1017.3
20260507111649 18 356 1.6 8.0 0.00 0.00 0.00 82 1017.3
20260507111120 18 346 1.6 8.0 0.00 0.00 0.00 82 1017.4
20260507110616 18 350 1.6 4.8 0.00 0.00 0.00 80 1017.4
20260507110605 18 339 1.6 4.8 0.00 0.00 0.00 80 1017.4
20260507105554 18 343 1.6 8.0 0.00 0.00 0.00 79 1017.4
20260507105046 18 332 1.6 8.0 0.00 0.00 0.00 77 1017.4
20260507104542 18 344 1.6 8.0 0.00 0.00 0.00 77 1017.4
20260507104048 18 325 1.6 8.0 0.00 0.00 0.00 75 1017.4
20260507103536 18 311 3.2 9.7 0.00 0.00 0.00 75 1017.4
20260507103026 18 313 3.2 9.7 0.00 0.00 0.00 73 1017.4
20260507102518 18 342 1.6 8.0 0.00 0.00 0.00 73 1017.2
20260507102007 19 330 1.6 9.7 0.00 0.00 0.00 71 1017.2
20260507101857 19 340 1.6 9.7 0.00 0.00 0.00 71 1017.2
20260507100958 19 7 0.0 8.0 0.00 0.00 0.00 72 1017.2
20260507100637 19 0 1.6 8.0 0.00 0.00 0.00 71 1017.1
20260507100523 19 21 0.0 4.8 0.00 0.00 0.00 72 1017.2
20260507100219 19 354 4.8 9.7 0.00 0.00 0.00 69 1017.0
20260507100031 19 3 0.0 4.8 0.00 0.00 0.00 72 1017.2
20260507095821 19 10 3.2 8.0 0.00 0.00 0.00 70 1017.1
20260507093904 19 342 4.8 11.3 0.00 0.00 0.00 69 1017.0
20260507093402 19 1 4.8 11.3 0.00 0.00 0.00 69 1017.0
20260507092900 19 325 3.2 11.3 0.00 0.00 0.00 69 1016.9
20260507092528 19 0 3.2 11.3 0.00 0.00 0.00 69 1016.9
20260507092402 19 330 3.2 9.7 0.00 0.00 0.00 69 1016.9
20260507091812 19 357 3.2 11.3 0.00 0.00 0.00 69 1016.5
20260507090856 19 0 3.2 9.7 0.00 0.00 0.00 70 1016.5
20260507090348 19 323 3.2 9.7 0.00 0.00 0.00 70 1016.5
20260507085816 19 10 3.2 11.3 0.00 0.00 0.00 70 1016.3
20260507085335 19 8 3.2 11.3 0.00 0.00 0.00 70 1016.3
20260507084845 19 0 3.2 9.7 0.00 0.00 0.00 71 1016.3
20260507084312 19 17 4.8 9.7 0.00 0.00 0.00 70 1016.1
20260507083811 19 10 3.2 9.7 0.00 0.00 0.00 70 1016.1
20260507083318 19 27 4.8 11.3 0.00 0.00 0.00 70 1016.1
20260507082844 19 1 4.8 11.3 0.00 0.00 0.00 69 1016.0
20260507082315 20 0 3.2 12.9 0.00 0.00 0.00 69 1016.0
20260507081810 20 0 3.2 12.9 0.00 0.00 0.00 68 1016.0
20260507081313 20 1 1.6 9.7 0.00 0.00 0.00 67 1016.0
20260507080811 20 13 3.2 9.7 0.00 0.00 0.00 66 1016.0
20260507080308 20 0 3.2 9.7 0.00 0.00 0.00 66 1016.0
20260507075811 20 325 1.6 8.0 0.00 0.00 0.00 67 1015.9
20260507075308 20 292 1.6 8.0 0.00 0.00 0.00 67 1015.9
20260507074928 20 1 3.2 9.7 0.00 0.00 0.00 68 1015.8
20260507074528 19 359 4.8 11.3 0.00 0.00 0.00 69 1015.8
20260507074001 19 264 3.2 11.3 0.00 0.00 0.00 70 1015.8
20260507073430 19 289 1.6 9.7 0.00 0.00 0.00 71 1015.8
20260507072843 19 282 3.2 11.3 0.00 0.00 0.00 74 1015.9
20260507072340 18 343 3.2 11.3 0.00 0.00 0.00 74 1015.9
20260507071803 18 284 4.8 12.9 0.00 0.00 0.00 75 1015.9
20260507071257 18 313 4.8 14.5 0.00 0.00 0.00 76 1015.8
20260507070752 18 315 4.8 14.5 0.00 0.00 0.00 78 1015.8
20260507070254 18 350 3.2 9.7 0.00 0.00 0.00 79 1015.8
20260507065745 18 339 1.6 9.7 0.00 0.00 0.00 81 1015.7
20260507065252 18 0 3.2 9.7 0.00 0.00 0.00 82 1015.7
20260507065125 17 0 3.2 11.3 0.00 0.00 0.00 82 1015.9
20260507064939 17 357 1.6 9.7 0.00 0.00 0.00 82 1015.9
20260507064928 17 25 0.0 9.7 0.00 0.00 0.00 83 1015.9
20260507064742 17 339 4.8 11.3 0.00 0.00 0.00 82 1015.7
20260507062742 17 16 1.6 4.8 0.00 0.00 0.00 83 1015.9
20260507062234 17 7 1.6 6.4 0.00 0.00 0.00 83 1015.9
20260507061726 17 6 1.6 9.7 0.00 0.00 0.00 83 1015.9
20260507061239 17 28 3.2 9.7 0.00 0.00 0.00 83 1015.8
20260507061111 16 0 4.8 11.3 0.00 0.00 0.00 86 1015.6
20260507060742 17 18 3.2 9.7 0.00 0.00 0.00 83 1015.8
20260507060306 17 0 3.2 9.7 0.00 0.00 0.00 83 1015.8
20260507055816 17 34 3.2 9.7 0.00 0.00 0.00 83 1015.7
20260507055239 17 30 3.2 9.7 0.00 0.00 0.00 85 1015.7
20260507054807 17 37 4.8 9.7 0.00 0.00 0.00 85 1015.7
20260507053921 16 21 4.8 11.3 0.00 0.00 0.00 86 1015.6
20260507053302 16 16 4.8 9.7 0.00 0.00 0.00 86 1015.6
20260507052907 16 21 3.2 8.0 0.00 0.00 0.00 86 1015.4
20260507052733 16 18 3.2 8.0 0.00 0.00 0.00 86 1015.4
20260507051723 16 10 1.6 8.0 0.00 0.00 0.00 87 1015.4
20260507051219 16 23 1.6 6.4 0.00 0.00 0.00 87 1015.4
20260507050711 16 13 0.0 1.6 0.00 0.00 0.00 88 1015.4
20260507050200 15 13 0.0 0.0 0.00 0.00 0.00 89 1015.3
20260507045703 15 14 0.0 0.0 0.00 0.00 0.00 89 1015.2
20260507045153 15 32 0.0 0.0 0.00 0.00 0.00 88 1015.2
20260507044659 15 28 0.0 0.0 0.00 0.00 0.00 88 1015.2
20260507044217 15 23 0.0 0.0 0.00 0.00 0.00 88 1015.0
20260507043643 15 14 0.0 0.0 0.00 0.00 0.00 89 1015.0
20260507043133 15 13 0.0 0.0 0.00 0.00 0.00 89 1015.0
20260507042622 15 13 0.0 0.0 0.00 0.00 0.00 89 1015.2
20260507042125 15 41 0.0 0.0 0.00 0.00 0.00 90 1015.2
20260507041625 14 30 0.0 0.0 0.00 0.00 0.00 89 1015.2
20260507041502 14 13 0.0 0.0 0.00 0.00 0.00 89 1014.9
20260507040845 14 13 0.0 0.0 0.00 0.00 0.00 89 1014.9
20260507040114 13 13 0.0 0.0 0.00 0.00 0.00 88 1014.9
20260507035932 13 13 0.0 4.8 0.00 0.00 0.00 84 1014.6
20260507035902 14 285 0.0 0.0 0.00 0.00 0.00 85 1014.4
20260507035654 13 13 0.0 1.6 0.00 0.00 0.00 88 1014.8
20260507035331 13 359 0.0 1.6 0.00 0.00 0.00 88 1014.8
20260507034825 13 0 0.0 3.2 0.00 0.00 0.00 87 1014.8
20260507034514 13 0 0.0 3.2 0.00 0.00 0.00 87 1014.8
20260507034219 13 349 0.0 0.0 0.00 0.00 0.00 86 1014.8
20260507033924 13 349 0.0 4.8 0.00 0.00 0.00 86 1014.8
20260507033605 13 349 0.0 4.8 0.00 0.00 0.00 86 1014.7
20260507033155 13 359 1.6 4.8 0.00 0.00 0.00 85 1014.7
20260507032202 13 326 0.0 3.2 0.00 0.00 0.00 84 1014.6
20260507030949 13 13 0.0 4.8 0.00 0.00 0.00 84 1014.6
20260507030510 13 295 0.0 0.0 0.00 0.00 0.00 84 1014.4
20260507025339 13 285 0.0 0.0 0.00 0.00 0.00 84 1014.4
20260507024825 14 285 0.0 0.0 0.00 0.00 0.00 84 1014.4
20260507023310 14 285 0.0 0.0 0.00 0.00 0.00 85 1014.4
20260507022654 14 282 0.0 0.0 0.00 0.00 0.00 85 1014.3
20260507022225 14 282 0.0 0.0 0.00 0.00 0.00 86 1014.3
20260507021623 14 282 0.0 0.0 0.00 0.00 0.00 86 1014.3
20260507021121 15 282 0.0 0.0 0.00 0.00 0.00 86 1014.3
20260507020602 15 282 0.0 0.0 0.00 0.00 0.00 86 1014.3
20260507020107 15 282 0.0 0.0 0.00 0.00 0.00 87 1014.3
20260507015547 15 282 0.0 0.0 0.00 0.00 0.00 88 1014.2
20260507015030 15 288 0.0 0.0 0.00 0.00 0.00 89 1014.2
20260507014529 14 306 0.0 0.0 0.00 0.00 0.00 89 1014.2
20260507014023 14 309 0.0 1.6 0.00 0.00 0.00 89 1014.2
20260507013521 14 311 0.0 1.6 0.00 0.00 0.00 90 1014.2
20260507013022 14 306 0.0 3.2 0.00 0.00 0.00 90 1014.2
20260507012522 14 308 0.0 3.2 0.00 0.00 0.00 91 1014.1
20260507012019 14 301 0.0 0.0 0.00 0.00 0.00 91 1014.1
20260507011507 14 305 0.0 1.6 0.00 0.00 0.00 91 1014.1
20260507011245 15 304 0.0 1.6 0.00 0.00 0.00 91 1014.1
20260507010945 15 301 0.0 0.0 0.00 0.00 0.00 92 1014.1
20260507005957 15 304 0.0 1.6 0.00 0.00 0.00 92 1014.1
20260507005459 15 295 0.0 1.6 0.00 0.00 0.00 92 1013.9
20260507004952 15 298 0.0 0.0 0.00 0.00 0.00 92 1013.9
20260507004450 14 298 0.0 0.0 0.00 0.00 0.00 92 1013.9
20260507003954 14 298 0.0 1.6 0.00 0.00 0.00 91 1013.9
20260507003444 14 296 0.0 1.6 0.00 0.00 0.00 92 1013.9
20260507002940 15 299 0.0 0.0 0.00 0.00 0.00 91 1013.9
20260507002450 15 302 0.0 0.0 0.00 0.00 0.00 92 1013.8
20260507001954 15 298 0.0 0.0 0.00 0.00 0.00 92 1013.8
20260507001439 15 302 0.0 0.0 0.00 0.00 0.00 91 1013.8
20260507000934 15 304 0.0 0.0 0.00 0.00 0.00 91 1013.8
20260507000435 15 302 0.0 0.0 0.00 0.00 0.00 91 1013.8
20260506235602 15 304 0.0 3.2 0.00 0.00 0.00 90 1013.8
20260506235100 15 302 0.0 0.0 0.00 0.00 0.00 90 1013.8
20260506234556 15 302 0.0 0.0 0.00 0.00 0.00 90 1013.8
20260506234101 15 294 0.0 0.0 0.00 0.00 0.00 89 1013.9
20260506233940 15 294 0.0 0.0 0.00 0.00 0.00 90 1013.9
20260506233628 15 294 0.0 0.0 0.00 0.00 0.00 90 1013.9
20260506232529 15 295 0.0 0.0 0.00 0.00 0.00 90 1014.2
20260506232039 15 304 0.0 0.0 0.00 0.00 0.00 89 1014.2
20260506232012 15 296 0.0 4.8 0.00 0.00 0.00 89 1014.2
20260506231036 15 302 0.0 4.8 0.00 0.00 0.00 89 1014.3
20260506230530 15 294 0.0 3.2 0.00 0.00 0.00 89 1014.3
20260506230450 15 305 0.0 3.2 0.00 0.00 0.00 88 1014.3
20260506225514 14 291 0.0 3.2 0.00 0.00 0.00 88 1014.3
20260506225015 14 272 0.0 3.2 0.00 0.00 0.00 87 1014.3
20260506224513 14 267 0.0 3.2 0.00 0.00 0.00 87 1014.3
20260506224015 14 264 0.0 3.2 0.00 0.00 0.00 86 1014.2
20260506223522 14 267 0.0 1.6 0.00 0.00 0.00 86 1014.2
20260506223345 14 246 0.0 3.2 0.00 0.00 0.00 84 1014.3
20260506223049 14 285 0.0 1.6 0.00 0.00 0.00 85 1014.2
20260506222527 14 263 0.0 0.0 0.00 0.00 0.00 85 1014.3
20260506222012 14 246 0.0 0.0 0.00 0.00 0.00 85 1014.3
20260506221004 14 264 0.0 3.2 0.00 0.00 0.00 83 1014.3
20260506220502 14 284 0.0 3.2 0.00 0.00 0.00 82 1014.3
20260506220005 14 247 0.0 3.2 0.00 0.00 0.00 82 1014.3
20260506215505 14 268 0.0 0.0 0.00 0.00 0.00 81 1014.2
20260506215002 14 250 0.0 0.0 0.00 0.00 0.00 81 1014.2
20260506214617 14 270 0.0 3.2 0.00 0.00 0.00 80 1014.1
20260506214500 14 246 0.0 0.0 0.00 0.00 0.00 81 1014.2
20260506213447 14 253 0.0 3.2 0.00 0.00 0.00 80 1014.1
20260506212950 15 267 0.0 4.8 0.00 0.00 0.00 80 1014.1
20260506212450 15 256 1.6 4.8 0.00 0.00 0.00 79 1014.1
20260506211939 15 250 0.0 3.2 0.00 0.00 0.00 79 1014.1
20260506211441 15 243 0.0 3.2 0.00 0.00 0.00 78 1014.1
20260506211238 15 271 0.0 0.0 0.00 0.00 0.00 77 1014.1
20260506210950 15 246 0.0 3.2 0.00 0.00 0.00 78 1014.1
20260506205939 15 248 0.0 3.2 0.00 0.00 0.00 77 1014.2
20260506205434 16 236 0.0 3.2 0.00 0.00 0.00 76 1014.3
20260506204922 16 198 0.0 0.0 0.00 0.00 0.00 76 1014.3
20260506204416 16 232 0.0 0.0 0.00 0.00 0.00 76 1014.4
20260506203900 16 232 0.0 0.0 0.00 0.00 0.00 76 1014.4
20260506203831 15 232 0.0 0.0 0.00 0.00 0.00 76 1014.4
20260506202902 15 232 0.0 0.0 0.00 0.00 0.00 76 1014.2
20260506202353 15 232 0.0 0.0 0.00 0.00 0.00 77 1014.2
20260506202307 15 230 0.0 0.0 0.00 0.00 0.00 77 1014.2
20260506201339 16 234 0.0 0.0 0.00 0.00 0.00 77 1014.2
20260506200840 16 232 0.0 0.0 0.00 0.00 0.00 77 1014.2
20260506200334 16 236 0.0 0.0 0.00 0.00 0.00 78 1014.2
20260506195834 16 233 0.0 0.0 0.00 0.00 0.00 78 1013.8
20260506195345 16 240 0.0 0.0 0.00 0.00 0.00 78 1013.8
20260506194831 16 236 0.0 0.0 0.00 0.00 0.00 78 1013.8
20260506194333 16 239 0.0 0.0 0.00 0.00 0.00 78 1013.7
20260506193829 16 232 0.0 0.0 0.00 0.00 0.00 79 1013.7
20260506193319 16 229 0.0 3.2 0.00 0.00 0.00 79 1013.7
20260506192810 16 229 0.0 3.2 0.00 0.00 0.00 79 1013.4
20260506192257 16 223 0.0 0.0 0.00 0.00 0.00 80 1013.4
20260506191711 16 232 0.0 1.6 0.00 0.00 0.00 80 1013.4
20260506191227 16 232 0.0 3.2 0.00 0.00 0.00 81 1013.5
20260506190723 16 219 0.0 4.8 0.00 0.00 0.00 82 1013.5
20260506190209 16 230 0.0 4.8 0.00 0.00 0.00 83 1013.5
20260506185702 16 241 0.0 3.2 0.00 0.00 0.00 83 1013.4
20260506185203 16 241 0.0 3.2 0.00 0.00 0.00 84 1013.4
20260506184703 16 243 0.0 3.2 0.00 0.00 0.00 84 1013.4
20260506184149 16 234 0.0 4.8 0.00 0.00 0.00 84 1013.2
20260506183652 16 217 0.0 4.8 0.00 0.00 0.00 84 1013.2
20260506183145 16 236 0.0 1.6 0.00 0.00 0.00 84 1013.2
20260506182637 16 236 0.0 3.2 0.00 0.00 0.00 84 1012.8
20260506182109 16 234 0.0 4.8 0.00 0.00 0.00 84 1012.8
20260506181534 16 193 0.0 1.6 0.00 0.00 0.00 83 1012.8
20260506181013 16 226 0.0 8.0 0.00 0.00 0.00 83 1012.7
20260506180517 16 145 0.0 8.0 0.00 0.00 0.00 83 1012.7
20260506175954 16 234 1.6 9.7 0.00 0.00 0.00 82 1012.7
20260506175459 17 158 1.6 9.7 0.00 0.00 0.00 82 1012.5
20260506174952 17 206 1.6 4.8 0.00 0.00 0.00 82 1012.5
20260506174847 17 202 0.0 4.8 0.00 0.00 0.00 81 1012.5
20260506173942 17 169 0.0 8.0 0.00 0.00 0.00 81 1012.4
20260506173436 17 220 1.6 8.0 0.00 0.00 0.00 80 1012.4
20260506172929 17 222 1.6 8.0 0.00 0.00 0.00 79 1012.4
20260506172427 17 205 1.6 9.7 0.00 0.00 0.00 77 1012.3